CT1ETE Weather Reports


time (UTC)temp
C
wind
direction
speed
KPH
gust
KPH
rain 1hr
cm
rain 24hr
cm
rain mn
cm
humidity
%
barometer
mb
20260902125941 29 234 8.0 16.1 0.00 0.00 0.00 53 1021.3
20260902124439 28 204 6.4 17.7 0.00 0.00 0.00 53 1021.4
20260902122939 28 238 6.4 14.5 0.00 0.00 0.00 54 1021.6
20260902121439 28 240 8.0 12.9 0.00 0.00 0.00 55 1021.7
20260902120635 27 270 8.0 14.5 0.00 0.00 0.00 56 1021.8
20260902114439 27 226 8.0 14.5 0.00 0.00 0.00 56 1022.0
20260902112939 27 229 6.4 12.9 0.00 0.00 0.00 57 1022.1
20260902111439 26 247 6.4 11.3 0.00 0.00 0.00 60 1022.1
20260902110643 26 240 4.8 11.3 0.00 0.00 0.00 60 1022.2
20260902104439 25 245 3.2 11.3 0.00 0.00 0.00 61 1022.2
20260902102937 25 238 3.2 8.0 0.00 0.00 0.00 64 1022.2
20260902101435 25 248 3.2 6.4 0.00 0.00 0.00 63 1022.2
20260902095934 23 246 3.2 6.4 0.00 0.00 0.00 67 1022.2
20260902095143 23 244 4.8 8.0 0.00 0.00 0.00 66 1022.2
20260902092935 23 248 4.8 8.0 0.00 0.00 0.00 67 1022.2
20260902091434 23 194 3.2 6.4 0.00 0.00 0.00 69 1021.9
20260902085934 22 108 1.6 4.8 0.00 0.00 0.00 70 1021.7
20260902084435 22 109 1.6 3.2 0.00 0.00 0.00 71 1021.6
20260902082934 22 109 0.0 3.2 0.00 0.00 0.00 70 1021.6
20260902081434 21 109 1.6 3.2 0.00 0.00 0.00 72 1021.4
20260902075934 20 109 0.0 3.2 0.00 0.00 0.00 75 1021.3
20260902074434 20 109 0.0 4.8 0.00 0.00 0.00 77 1021.3
20260902072934 19 109 3.2 4.8 0.00 0.00 0.00 80 1021.2
20260902071435 18 109 0.0 4.8 0.00 0.00 0.00 81 1021.1
20260902065933 17 109 0.0 3.2 0.00 0.00 0.00 83 1020.9
20260902064432 17 109 3.2 4.8 0.00 0.00 0.00 83 1020.7
20260902062932 17 109 3.2 6.4 0.00 0.00 0.00 84 1020.6
20260902061433 16 109 4.8 6.4 0.00 0.00 0.00 84 1020.6
20260902055933 16 109 3.2 4.8 0.00 0.00 0.00 84 1020.6
20260902054431 17 109 0.0 3.2 0.00 0.00 0.00 83 1020.5
20260902052928 17 109 0.0 0.0 0.00 0.00 0.00 82 1020.4
20260902051427 17 109 0.0 3.2 0.00 0.00 0.00 82 1020.3
20260902050620 17 109 0.0 3.2 0.00 0.00 0.00 82 1020.4
20260902044424 17 109 3.2 4.8 0.00 0.00 0.00 83 1020.3
20260902042923 17 109 3.2 6.4 0.00 0.00 0.00 83 1020.1
20260902041420 17 109 1.6 3.2 0.00 0.00 0.00 83 1020.2
20260902035918 17 109 1.6 3.2 0.00 0.00 0.00 83 1020.3
20260902034416 17 109 1.6 3.2 0.00 0.00 0.00 83 1020.2
20260902033615 17 109 0.0 0.0 0.00 0.00 0.00 82 1020.2
20260902032816 17 109 0.0 4.8 0.00 0.00 0.00 82 1020.1
20260902025916 17 109 3.2 6.4 0.00 0.00 0.00 82 1020.0
20260902024416 17 109 3.2 6.4 0.00 0.00 0.00 83 1019.9
20260902022916 17 109 4.8 9.7 0.00 0.00 0.00 83 1020.1
20260902021414 17 108 3.2 9.7 0.00 0.00 0.00 82 1020.3
20260902015914 17 109 4.8 6.4 0.00 0.00 0.00 83 1020.4
20260902014414 17 109 4.8 6.4 0.00 0.00 0.00 83 1020.5
20260902012914 17 109 6.4 9.7 0.00 0.00 0.00 82 1020.5
20260902011412 17 109 6.4 11.3 0.00 0.00 0.00 83 1020.7
20260902005910 17 184 1.6 4.8 0.00 0.00 0.00 83 1020.8
20260902005104 17 184 3.2 4.8 0.00 0.00 0.00 82 1020.9
20260902002910 17 182 1.6 4.8 0.00 0.00 0.00 82 1020.9
20260902001408 17 224 1.6 4.8 0.00 0.00 0.00 82 1020.9
20260901235908 17 224 3.2 4.8 0.00 0.00 0.00 82 1020.9
20260901235824 17 224 1.6 3.2 0.00 0.00 0.00 82 1020.9
20260901232904 17 224 0.0 3.2 0.00 0.00 0.00 82 1020.9
20260901231404 18 224 1.6 3.2 0.00 0.00 0.00 81 1020.7
20260901225904 18 224 0.0 3.2 0.00 0.00 0.00 80 1020.6
20260901224402 18 224 3.2 6.4 0.00 0.00 0.00 80 1020.7
20260901222900 18 225 0.0 3.2 0.00 0.00 0.00 80 1020.7
20260901221400 18 225 1.6 3.2 0.00 0.00 0.00 79 1020.8
20260901215900 18 225 1.6 4.8 0.00 0.00 0.00 78 1020.7
20260901214358 18 225 1.6 4.8 0.00 0.00 0.00 77 1020.7
20260901212851 19 225 0.0 0.0 0.00 0.00 0.00 77 1020.7
20260901212057 19 225 0.0 3.2 0.00 0.00 0.00 77 1020.6
20260901210606 19 225 0.0 3.2 0.00 0.00 0.00 77 1020.6
20260901205052 19 225 0.0 3.2 0.00 0.00 0.00 75 1020.5
20260901202852 20 225 1.6 4.8 0.00 0.00 0.00 74 1020.4
20260901201352 20 225 0.0 6.4 0.00 0.00 0.00 73 1020.3
20260901195852 21 225 3.2 6.4 0.00 0.00 0.00 70 1020.2
20260901194352 21 172 1.6 4.8 0.00 0.00 0.00 68 1020.0
20260901192852 21 140 3.2 6.4 0.00 0.00 0.00 67 1019.9
20260901191352 22 140 3.2 8.0 0.00 0.00 0.00 66 1019.8
20260901185852 22 228 6.4 11.3 0.00 0.00 0.00 66 1019.8
20260901184352 23 234 8.0 12.9 0.00 0.00 0.00 64 1019.9
20260901183553 23 216 8.0 16.1 0.00 0.00 0.00 61 1019.8
20260901181352 24 221 12.9 20.9 0.00 0.00 0.00 60 1019.8
20260901175852 24 229 14.5 20.9 0.00 0.00 0.00 59 1019.7
20260901174349 25 213 16.1 22.5 0.00 0.00 0.00 58 1019.6
20260901172849 25 208 14.5 22.5 0.00 0.00 0.00 57 1019.4
20260901171349 25 225 17.7 25.7 0.00 0.00 0.00 56 1019.4
20260901165850 25 217 14.5 24.1 0.00 0.00 0.00 56 1019.3
20260901164350 25 216 17.7 27.4 0.00 0.00 0.00 56 1019.3
20260901163545 26 244 14.5 25.7 0.00 0.00 0.00 54 1019.1
20260901161347 26 232 17.7 27.4 0.00 0.00 0.00 55 1019.0
20260901155847 26 247 17.7 29.0 0.00 0.00 0.00 56 1018.9
20260901154347 27 250 16.1 29.0 0.00 0.00 0.00 56 1018.9
20260901152848 27 232 14.5 27.4 0.00 0.00 0.00 56 1018.9
20260901151346 27 246 11.3 22.5 0.00 0.00 0.00 56 1019.0
20260901145847 27 235 11.3 24.1 0.00 0.00 0.00 56 1019.1
20260901144347 27 277 8.0 17.7 0.00 0.00 0.00 55 1019.0
20260901143544 26 225 8.0 17.7 0.00 0.00 0.00 53 1019.0
20260901141347 26 232 9.7 19.3 0.00 0.00 0.00 55 1019.1
20260901135847 26 234 8.0 20.9 0.00 0.00 0.00 54 1019.2
20260901134347 26 239 8.0 16.1 0.00 0.00 0.00 56 1019.2
20260901132847 25 271 8.0 19.3 0.00 0.00 0.00 58 1019.3
20260901131347 25 231 8.0 19.3 0.00 0.00 0.00 59 1019.4